User: anonymous   Login
Location: Township of South Roscoe
(37.9570°N, 100.1180°W)
Time: 12:30:37
(UTC+00:00)
Language:

Cosmos 371 Rocket - Orbit

View from above orbital plane
View from above orbital plane
View from above satellite
View from above satellite

Ground track
Ground track

The orbit data is extracted from the following two-line orbital elements,

1 04579U 70083B   22021.72392336  .00000192  00000-0  45608-4 0  9994
2 04579  74.0027 118.1181 0009190  76.4402 283.7786 14.60578909719894
Epoch (UTC): 21 January 2022 17:22:26
Eccentricity: 0.0009190
inclination: 74.0027°
perigee height: 685 km
apogee height: 698 km
right ascension of ascending node: 118.1181°
argument of perigee: 76.4402°
revolutions per day: 14.60578909
mean anomaly at epoch: 283.7786°
orbit number at epoch: 71989

The dashed part of the orbit path shows where the satellite is in the earth's shadow,  

DLR